STARLINK-36737

Last updated on Sat Mar 14 2026 00:02:07 GMT+0000 (Coordinated Universal Time)

1 67740U 26026V 26072.58334491 .00105718 00000+0 32390-2 0 9994 2 67740 97.2849 127.1913 0001586 99.5469 359.5250 15.33369988 5943
UTC large
Height (km)
Speed (km/s)
/
Latitude / Longitude
Inclination (degrees)
Orbital Period (minutes)
Azimuth
Elevation
Range (km)
Doppler Factor

Next 0 passes for location: London (51.5072 / 0.1276)

Sorry there are no passes over London.